H2SAT (HEINRICH HERTZ)

Last updated on Sun Sep 20 2026 00:03:01 GMT+0000 (Coordinated Universal Time)

1 57213U 23093A 26262.00371534 .00000000 00000+0 00000+0 0 9994 2 57213 0.0222 55.8292 0000153 24.8069 279.3656 1.00270046 11858
UTC large
Height (km)
Speed (km/s)
/
Latitude / Longitude
Inclination (degrees)
Orbital Period (minutes)
Azimuth
Elevation
Range (km)
Doppler Factor

Next 0 passes for location: London (51.5072 / 0.1276)

No passes found over London.
H2SAT (HEINRICH HERTZ)